Location: A O Calhoun Middle School
(33.2198°N, 97.1397°W)
Time: 23:34:22
(UTC+00:00)

Meteor 1-25 Rocket - Visible Passes

Search period start: 27 June 2022 00:00
Search period end: 07 July 2022 00:00
Orbit: 838 x 890 km, 81.2° (Epoch: 27 June)

Date Brightness Start Highest point End Pass type
(mag) Time Alt. Az. Time Alt. Az. Time Alt. Az.
27 Jun 5.3 09:31:54 10° SSE 09:37:22 45° E 09:42:53 10° NNE visible
28 Jun 5.2 09:24:17 12° SSE 09:29:22 45° E 09:34:53 10° NNE visible
29 Jun 5.2 09:16:52 15° SSE 09:21:21 44° E 09:26:51 10° NNE visible
30 Jun 5.2 09:09:24 18° SSE 09:13:21 44° E 09:18:51 10° NNE visible
30 Jun 5.7 10:52:30 10° WSW 10:56:42 20° WNW 11:00:57 10° NNW visible
01 Jul 5.2 09:01:55 22° SSE 09:05:20 44° E 09:10:50 10° NNE visible
01 Jul 5.7 10:44:28 10° WSW 10:48:42 20° WNW 10:52:57 10° NNW visible
02 Jul 5.2 08:54:24 25° SSE 08:57:19 44° E 09:02:49 10° NNE visible
02 Jul 5.7 10:36:43 11° WSW 10:40:41 21° WNW 10:44:57 10° NNW visible
03 Jul 5.2 08:46:51 29° SE 08:49:19 44° E 08:54:48 10° NNE visible
03 Jul 5.7 10:29:10 13° WSW 10:32:40 21° WNW 10:36:57 10° NNW visible
04 Jul 5.2 08:39:16 32° SE 08:41:18 43° E 08:46:47 10° NNE visible
04 Jul 5.7 10:21:36 14° WSW 10:24:39 21° WNW 10:28:57 10° NNW visible
05 Jul 5.1 08:31:40 35° SE 08:33:18 43° E 08:38:46 10° NNE visible
05 Jul 5.7 10:13:59 16° WSW 10:16:39 21° WNW 10:20:56 10° NNW visible
06 Jul 5.1 08:24:03 38° ESE 08:25:17 43° E 08:30:45 10° NNE visible
06 Jul 5.7 10:06:22 17° WSW 10:08:37 21° WNW 10:12:56 10° NNW visible
